Simultaneous Nadir Overpasses (SNOs) Predictions

Prediction of SNOs between GOES-17 and LANDSAT-8 Satellite Orbit:

Table of predicted SNOs for the next 14.0 days since TLE Epoch: 10/12/2024
Index Date Time (GOES-17) GOES-17 Lat,Lon LANDSAT-8 Lat,Lon Distance(km) Time Diff (sec)
1 10/12/2024 05:15:48 0.00,-104.71 -0.20,-105.52 93.21 80
2 10/14/2024 05:00:59 0.00,-104.72 0.47,-102.58 244.04 80
3 10/14/2024 17:22:15 0.00,-104.77 0.61,-107.74 336.75 80
4 10/16/2024 17:12:43 -0.00,-104.79 0.02,-104.77 3.30 80
5 10/18/2024 17:00:31 -0.00,-104.80 -0.64,-101.81 339.95 80
6 10/19/2024 05:21:55 0.00,-104.76 -0.45,-107.01 254.46 80
7 10/21/2024 05:07:01 -0.00,-104.77 0.19,-104.04 84.59 80
8 10/21/2024 17:28:15 0.01,-104.82 0.95,-109.18 496.48 80
9 10/23/2024 04:54:45 -0.02,-104.79 0.78,-101.05 424.32 80
10 10/23/2024 17:15:59 0.02,-104.83 0.34,-106.20 156.44 80
11 10/25/2024 17:06:22 0.03,-104.85 -0.29,-103.22 184.48 80
